This is the latest recevied weather packets stored in our database for station/object DL3NDS-WX. If no packets are shown the sender has not sent any weather packets the latest 1 day(s).
| Time | Temp. | Humidity | Pressure | Rain* | Wind** | Luminosity | Snow |
|---|---|---|---|---|---|---|---|
| 1778066861 | 16.67° C | 71% | 1008.2 hPa | 0 mm | - | 464 W/m² | - |
| 1778066548 | 16.67° C | 72% | 1008.1 hPa | 0 mm | - | 339 W/m² | - |
| 1778066489 | 16.67° C | 72% | 1008.2 hPa | 0 mm | - | 350 W/m² | - |
| 1778066367 | 16.67° C | 72% | 1008.2 hPa | 0 mm | - | 350 W/m² | - |
| 1778066304 | 16.67° C | 71% | 1008.2 hPa | 0 mm | - | 355 W/m² | - |
| 1778066094 | 16.67° C | 71% | 1008.2 hPa | 0 mm | - | 353 W/m² | - |
| 1778065941 | 16.67° C | 71% | 1008.3 hPa | 0 mm | - | 378 W/m² | - |
| 1778065838 | 17.22° C | 71% | 1008.2 hPa | 0 mm | - | 439 W/m² | - |
| 1778065688 | 17.22° C | 71% | 1008.2 hPa | 0 mm | - | 485 W/m² | - |
| 1778065631 | 16.67° C | 72% | 1008.2 hPa | 0 mm | - | 483 W/m² | - |
| 1778065320 | 16.67° C | 72% | 1008.2 hPa | 0 mm | - | 469 W/m² | - |
| 1778065139 | 16.67° C | 73% | 1008.3 hPa | 0 mm | - | 642 W/m² | - |
| 1778065077 | 16.67° C | 71% | 1008.2 hPa | 0 mm | - | 643 W/m² | - |
| 1778064771 | 16.67° C | 72% | 1008.2 hPa | 0 mm | - | 573 W/m² | - |
| 1778064526 | 16.67° C | 72% | 1008.3 hPa | 0 mm | - | 647 W/m² | - |
| 1778064339 | 16.11° C | 73% | 1008.3 hPa | 0 mm | - | 650 W/m² | - |
| 1778064277 | 16.11° C | 72% | 1008.3 hPa | 0 mm | - | 582 W/m² | - |
| 1778064031 | 16.11° C | 74% | 1008.4 hPa | 0 mm | - | 373 W/m² | - |
| 1778063914 | 16.11° C | 73% | 1008.4 hPa | 0 mm | - | 369 W/m² | - |
| 1778063731 | 16.11° C | 74% | 1008.4 hPa | 0 mm | - | 524 W/m² | - |
| 1778063546 | 16.11° C | 74% | 1008.4 hPa | 0 mm | - | 506 W/m² | - |
| 1778063361 | 15.56° C | 74% | 1008.4 hPa | 0 mm | - | 425 W/m² | - |
| 1778063240 | 16.11° C | 74% | 1008.4 hPa | 0 mm | - | 394 W/m² | - |
| 1778063174 | 16.11° C | 74% | 1008.5 hPa | 0 mm | - | 381 W/m² | - |
| 1778063112 | 16.11° C | 75% | 1008.3 hPa | 0 mm | - | 353 W/m² | - |
* Rain latest hour (hover to see other rain measurements)
** Current wind speed in m/s (hover to see current wind gust speed)